Regional Weather Roundup
Issued by NWS

Home | Current Version | Previous Version | Text Only | Print | Product List | Glossary Off
Versions: 1 2 3 4 5 6 7 8 9 10 11 12 13 14 15 16 17 18 19 20 21 22 23 24 25 26 27 28 29 30 31 32 33 34 35 36 37 38 39 40 41 42 43 44 45 46 47 48 49 50

000
ASUS45 KPSR 271510
RWRAZ

ARIZONA REGIONAL HOURLY WEATHER ROUNDUP
NATIONAL WEATHER SERVICE PHOENIX AZ
800 AM MST TUE JAN 27 2015

NOTE: FAIR INDICATES FEW OR NO CLOUDS BELOW 12,000 FEET WITH NO
SIGNIFICANT WEATHER AND/OR OBSTRUCTIONS TO VISIBILITY.

AZZ001>003-036-271600-
NORTHWEST ARIZONA

CITY           SKY/WX    TMP DP  RH WIND       PRES   REMARKS
BULLHEAD CITY  CLOUDY    55  54  94 CALM      30.27R
KINGMAN        MOSUNNY   43  41  93 S6        30.26R
$$

AZZ004>008-015-016-018-271600-
NORTH CENTRAL ARIZONA

CITY           SKY/WX    TMP DP  RH WIND       PRES   REMARKS
GRAND CANYON   LGT RAIN  39  38  96 SE7       30.33R FOG     WCI  34
PRESCOTT       PTSUNNY   45  41  86 SE10      30.30R
FLAGSTAFF      PTSUNNY   36  34  92 SW10      30.35R WCI  28
PAYSON         CLOUDY    46  34  61 NE3       30.34R
$$

AZZ009>014-017-271600-
NORTHEAST ARIZONA

CITY           SKY/WX    TMP DP  RH WIND       PRES   REMARKS
WINSLOW        MOSUNNY   35  31  85 E6        30.33R WCI  30
SAINT JOHNS    SUNNY     37  33  85 E3        30.35R
WINDOW ROCK    CLOUDY    32  27  81 CALM      30.38R
SHOW LOW       SUNNY     36  32  87 S7        30.37R WCI  30
$$

AZZ023-271600-
GREATER PHOENIX AREA

CITY           SKY/WX    TMP DP  RH WIND       PRES   REMARKS
PHOENIX        PTSUNNY   56  51  84 CALM      30.21R
BUCKEYE          N/A     54  54 100 NE6       30.24R
GLENDALE       PTSUNNY   54  54 100 CALM      30.24R
LUKE AFB       NOT AVBL
DEER VALLEY    PTSUNNY   56  50  80 CALM      30.22R
SCOTTSDALE     CLOUDY    54  50  86 CALM      30.23R
MESA-FALCON    PTSUNNY   54  48  82 MISG      30.22
MESA-GATEWAY   PTSUNNY   50  48  93 S3        30.24R
CHANDLER       PTSUNNY   52  50  93 CALM      30.23R
$$

AZZ027-028-271600-
SOUTHWEST MARICOPA COUNTY AND PINAL COUNTY

CITY           SKY/WX    TMP DP  RH WIND       PRES   REMARKS
CASA GRANDE    CLOUDY    48  45  87 CALM      30.23R
GILA BEND      CLOUDY    52  50  92 E6        30.22R
$$

AZZ503-504-507>509-271600-
SOUTHEAST ARIZONA

CITY           SKY/WX    TMP DP  RH WIND       PRES   REMARKS
TUCSON         CLOUDY    54  45  71 E5        30.27R
DAVIS-MONTHAN  LGT RAIN  52  43  71 E9        30.24R
RYAN FIELD       N/A     54  54 100 E6        30.26R
NOGALES        SUNNY     46  43  89 E3        30.28R
SIERRA VISTA   PTSUNNY   48  39  71 CALM      30.31R
DOUGLAS        MOSUNNY   43  30  60 CALM      30.32R
SAFFORD        MOSUNNY   50  37  61 SE13      30.29R
$$

AZZ020-021-025-026-031-271600-
SOUTHWEST ARIZONA

CITY           SKY/WX    TMP DP  RH WIND       PRES   REMARKS
YUMA           PTSUNNY   57  53  86 NE13      30.21R
$$

CAZ031-033-041-043-047-048-061-271600-
SOUTHERN CALIFORNIA

CITY           SKY/WX    TMP DP  RH WIND       PRES   REMARKS
DOWNTOWN L.A.  CLOUDY    59  53  80 CALM      30.17R
L.A. AIRPORT   PTSUNNY   58  54  86 VRB3      30.18R
SAN DIEGO      PTSUNNY   56  50  80 CALM      30.18R
BURBANK        CLOUDY    55  53  93 W3        30.18R
ONTARIO        PTSUNNY   57  53  86 CALM      30.18R
RIVERSIDE      CLOUDY    54  53  97 CALM      30.18R FOG
PALM SPRINGS   PTSUNNY   58  54  86 CALM      30.25R
EL CENTRO NAS  PTSUNNY   55  53  93 CALM      30.22R FOG
IMPERIAL       FOG       52  52 100 W3        30.22R VSB 1/4
BLYTHE         MOSUNNY   53  53 100 CALM      30.23R
NEEDLES        CLOUDY    55  51  86 SW5       30.26R
$$

NVZ020-UTZ003-271600-
SOUTHERN NEVADA-UTAH

CITY           SKY/WX    TMP DP  RH WIND       PRES   REMARKS
LAS VEGAS      CLOUDY    51  49  92 SE5       30.21R
SALT LAKE CITY PTSUNNY   31  29  92 CALM      30.20R
$$

NMZ009-TXZ055-271600-
NEW MEXICO-WEST TEXAS

CITY           SKY/WX    TMP DP  RH WIND       PRES   REMARKS
ALBUQUERQUE    MOSUNNY   29  24  82 SE7       30.38R WCI  22
EL PASO        PTSUNNY   46  33  60 N7        30.32R
$$


........................KEY........................
SKY/WX - SKY CONDITION/WEATHER
TMP    - TEMPERATURE IN FAHRENHEIT
DP     - DEW POINT IN FAHRENHEIT
RH     - RELATIVE HUMIDITY IN PERCENT
WIND   - DIRECTION AND SPEED IN MILES PER HOUR (MPH)
VRB    - VARIABLE WIND DIRECTION
PRES   - MEAN SEA LEVEL PRESSURE IN INCHES OF MERCURY
         F - FALLING PRESSURE   R - RISING PRESSURE
         S - STEADY PRESSURE
VSB    - VISIBILITY IN MILES
HX     - HEAT INDEX IN FAHRENHEIT
WCI    - WIND CHILL INDEX IN FAHRENHEIT
TC     - TEMPERATURE IN CELSIUS WHICH IS ALSO KNOWN AS
         TEMPERATURE IN CENTIGRADE
AFB    - AIR FORCE BASE
         LUKE AFB IS LUKE AIR FORCE BASE
         DAVIS-MONTHAN IS DAVIS-MONTHAN AIR FORCE BASE
NAS    - NAVAL AIR STATION
         EL CENTRO NAS IS EL CENTRO NAVAL AIR STATION
N/A    - NOT AVAILABLE



USA.gov is the U.S. government's official web portal to all federal, state and local government web resources and services.